This demonstration page uses our WeatherBlox Daily Observations layout. Learn more.

Left ArrowRight Arrow

38.83388, -104.82136

Hourly Observations for May 21, 2018

Temp ( °F °C ) Dew Point ( °F °C ) Humidity (%) Winds ( mph kmh ) Pressure ( in mb ) Visibility ( mi km ) Precip ( " mm )
12:58 am 00:58 Mostly Cloudy 48 9 39 3.8 70 70 S 12 19 29.78 1008 10 16 0.00 0.00
1:58 am 01:58 Partly Cloudy 50 10.1 38 3.3 63 63 S 10 17 29.74 1007 10 16 0.00 0.00
2:58 am 02:58 Mostly Cloudy 48 8.8 38 3.6 70 70 N 3 6 29.73 1007 10 16 0.00 0.00
3:58 am 03:58 Mostly Cloudy 47 8.4 38 3.5 72 72 SSW 3 6 29.72 1006 10 16 0.00 0.00
4:58 am 04:58 Mostly Cloudy 51 10.4 33 0.3 50 50 W 8 13 29.68 1005 10 16 0.00 0.00
5:58 am 05:58 Partly Cloudy 47 8.4 38 3.1 70 70 Calm 29.69 1005 10 16 0.00 0.00
6:58 am 06:58 Sunny 49 9.4 39 3.7 68 68 Calm 29.70 1006 10 16 0.00 0.00
7:58 am 07:58 Mostly Cloudy 56 13.1 40 4.3 55 55 Calm 29.66 1005 10 16 0.00 0.00
8:58 am 08:58 Sunny 57 14.1 46 7.8 66 66 Calm 29.65 1004 10 16 0.00 0.00
9:58 am 09:58 Mostly Sunny 60 15.8 43 6.3 53 53 Calm 29.63 1004 10 16 0.00 0.00
10:58 am 10:58 Mostly Cloudy 62 16.6 46 7.8 56 56 Calm 29.63 1004 10 16 0.00 0.00
11:58 am 11:58 Partly Cloudy 68 19.9 43 5.9 40 40 NE 3 6 29.60 1002 10 16 0.00 0.00
12:58 pm 12:58 Partly Cloudy 70 21.1 37 2.9 30 30 NE 3 6 29.58 1002 10 16 0.00 0.00
1:58 pm 13:58 Mostly Sunny 74 23.4 27 -2.6 18 18 NE 8 13 29.53 1000 10 16 0.00 0.00
2:58 pm 14:58 Mostly Sunny 72 22.1 26 -3.1 18 18 SE 15 24 29.54 1000 10 16 0.00 0.00
3:58 pm 15:58 Sunny 69 20.8 32 -0.2 25 25 SSE 25 41 29.52 1000 10 16 0.00 0.00
4:58 pm 16:58 Mostly Sunny 67 19.4 31 -0.7 26 26 S 7 11 29.56 1001 10 16 0.00 0.00
5:58 pm 17:58 Mostly Sunny 65 18.4 31 -0.7 28 28 Calm 29.59 1002 10 16 0.00 0.00
6:58 pm 18:58 Mostly Cloudy 64 17.7 34 1 33 33 ESE 6 9 29.59 1002 10 16 0.00 0.00
7:58 pm 19:58 Mostly Cloudy 62 16.9 33 0.4 33 33 Calm 29.58 1002 10 16 0.00 0.00
8:58 pm 20:58 Partly Cloudy 63 17 32 -0.1 32 32 W 9 15 29.54 1000 10 16 0.00 0.00
9:58 pm 21:58 Mostly Cloudy 60 15.8 33 0.6 36 36 WNW 8 13 29.56 1001 10 16 0.00 0.00
10:58 pm 22:58 Clear 59 14.8 34 1.2 40 40 Calm 29.54 1000 10 16 0.00 0.00
11:58 pm 23:58 Mostly Clear 57 14.1 34 1.1 41 41 W 3 6 29.51 999 10 16 0.00 0.00

Powered by AerisWeather